Location: American Canyon
(38.1966°N, 122.1514°W)
Time: 16:24:10
(UTC+00:00)

Meteor 2-19 Rocket - Pass Details

Date: 29 October 2020
Orbit: 936 x 959 km, 82.5° (Epoch: 22 November)

Event Time Altitude Azimuth Distance (km) Brightness Sun altitude
Rises 13:39:17 0° 192° (SSW) 3,603 7.5 -11.0°
Reaches altitude 10° 13:41:47 10° 194° (SSW) 2,659 6.7 -10.5°
Maximum altitude 13:47:50 71° 278° (W) 993 4.4 -9.3°
Drops below altitude 10° 13:53:54 10° 3° (N) 2,660 6.7 -8.1°
Sets 13:56:25 0° 5° (N) 3,606 7.4 -7.6°
